Location: Unspecified
(52.4292°N, 19.3359°E)
Time: 13:09:22
(UTC+02:00)

deb Explorer IX - All Passes

Search period start: 19 May 2024 00:00
Search period end: 29 May 2024 00:00
Orbit: 513 x 892 km, 38.7° (Epoch: 19 May)

Date Brightness Start Highest point End Pass type
(mag) Time Alt. Az. Time Alt. Az. Time Alt. Az.
19 May - 01:23:40 10° SSW 01:25:05 12° S 01:26:29 10° SSE night (unlit)
20 May - 00:24:19 10° S 00:25:30 11° S 00:26:39 10° SSE night (unlit)
20 May - 02:07:19 10° SSW 02:08:30 11° S 02:09:39 10° S visible
21 May - 01:07:08 10° SSW 01:08:51 12° S 01:10:31 10° SSE night (unlit)
22 May - 00:07:10 10° SSW 00:09:06 13° S 00:10:57 10° SSE night (unlit)
22 May - 23:07:23 10° SSW 23:09:15 12° S 23:11:04 10° SSE visible
23 May - 00:50:34 10° SSW 00:52:16 12° S 00:53:56 10° SSE night (unlit)
23 May - 22:07:53 10° S 22:09:20 11° SSE 22:10:44 10° SSE visible
23 May - 23:50:07 10° SW 23:52:22 14° S 23:54:32 10° SSE visible
24 May - 22:49:51 10° SSW 22:52:22 14° S 22:54:46 10° SE visible
25 May - 00:34:00 10° SSW 00:35:21 11° SSW 00:36:41 10° S visible
25 May - 21:49:42 10° SSW 21:52:15 14° S 21:54:41 10° SE visible
25 May - 23:32:58 10° SW 23:35:19 14° S 23:37:34 10° SSE visible
26 May - 20:49:47 10° SSW 20:52:03 13° SSE 20:54:15 10° SE daylight
26 May - 22:32:18 10° SW 22:35:09 15° S 22:37:51 10° SSE visible
27 May - 19:50:25 10° S 19:51:47 11° SSE 19:53:09 10° SE daylight
27 May - 21:31:45 10° SW 21:34:53 16° S 21:37:49 10° SE visible
27 May - 23:15:43 10° SW 23:17:55 13° SSW 23:20:01 10° SSE visible
28 May - 20:31:21 10° SSW 20:34:29 16° S 20:37:29 10° SE daylight
28 May - 22:14:37 10° SW 22:17:36 16° S 22:20:25 10° SSE visible
